Flag for U.S.A. Weather past 2 weeks in Olathe, Kansas, U.S.A.

Now
74 °F

Clear.


Feels Like: 75 °F
Forecast: 68 / 86 °F
Wind: 3 mph from Northeast

Location: Johnson County Executive Airport

Current Time: Jul 29, 2015 at 11:58:17 PM

Latest Report: Jul 29, 2015 at 10:53 PM


Visibility: 10 mi

Pressure: 30.14 "Hg

Humidity: 76%

Dew point: 66 °F

Location of OlatheLocation

Historic Weather in Olathe — Graph

°F

Olathe temperature yesterday

Maximum temperature yesterday: 93 °F (at 2:53 PM)
Minimum temperature yesterday: 77 °F (at 2:53 AM)
Average temperature yesterday: 84 °F

Past Weeks' High & Low Weather Summary

 TemperatureHumidityPressure
High94 °F (Jul 24, 4:53 PM)100% (Jul 20, 4:53 AM)30.12 "Hg (Jul 20, 4:53 AM)
Low63 °F (Jul 22, 4:53 AM)49% (Jul 28, 2:53 PM)29.74 "Hg (Jul 16, 6:53 PM)
Average80 °F77%29.88 "Hg
* Reported Jul 14 9:53 PM — Jul 29 9:53 PM, Olathe, Weather by CustomWeather, © 2015

Note: Actual official high and low records may vary slightly from our data, if they occured in-between our weather recording intervals... More about our weather records

Advertising

Olathe weather history for previous 24 hours

 ConditionsComfort  
Time TempWeatherWind HumidityBarometerVisibility
9:53 PM
Wed, Jul 29
74 °FClear.5 mph76%30.12 "Hg10 mi
8:53 PM77 °FSunny.5 mph69%30.10 "Hg10 mi
7:53 PM81 °FSunny.7 mph58%30.11 "Hg10 mi
6:53 PM83 °FSunny.8 mph51%30.09 "Hg10 mi
5:53 PM82 °FSunny.7 mph51%30.09 "Hg10 mi
4:53 PM84 °FSunny.7 mph53%30.09 "Hg10 mi
3:53 PM85 °FSunny.10 mph50%30.09 "Hg10 mi
2:53 PM83 °FScattered clouds.10 mph57%30.09 "Hg10 mi
1:53 PM83 °FScattered clouds.13 mph61%30.10 "Hg10 mi
12:53 PM81 °FPassing clouds.10 mph69%30.11 "Hg10 mi
11:53 AM80 °FPassing clouds.9 mph71%30.12 "Hg10 mi
11:00 AM74 °FScattered clouds.12 mph88%30.12 "Hg10 mi
9:53 AM71 °FLight rain. Partly sunny.13 mph96%30.09 "Hg10 mi
8:53 AM72 °FLight rain. Partly sunny.7 mph97%30.09 "Hg10 mi
7:53 AM70 °FLight rain. Partly sunny.5 mph100%30.06 "Hg10 mi
7:01 AM71 °FHeavy rain. Fog.7 mph93%30.12 "Hg1 mi
6:02 AM70 °FThundershowers. Overcast.9 mph97%30.05 "Hg10 mi
4:53 AM71 °FThunderstorms. Overcast.3 mph93%30.06 "Hg10 mi
3:53 AM75 °FLight rain. Mostly cloudy.22 mph76%30.02 "Hg10 mi
2:53 AM81 °FOvercast.13 mph77%29.97 "Hg10 mi
1:53 AM81 °FPassing clouds.6 mph74%29.93 "Hg10 mi
12:53 AM81 °FClear.6 mph74%29.92 "Hg10 mi
11:53 PM
Tue, Jul 28
80 °FClear.6 mph79%29.90 "Hg10 mi
Weather by CustomWeather, © 2015

See weather overviewHow to use our weather pages